Year,Month,Day,Hour,Minute,Value (Times are PST for temperature in C)
2006,04,16,00,00,5.10
2006,04,16,00,01,5.20
2006,04,16,00,02,5.20
2006,04,16,00,03,5.20
2006,04,16,00,04,5.20
2006,04,16,00,05,5.20
2006,04,16,00,06,5.20
2006,04,16,00,07,5.20
2006,04,16,00,08,5.20
2006,04,16,00,09,5.20
2006,04,16,00,10,5.30
2006,04,16,00,11,5.30
2006,04,16,00,12,5.30
2006,04,16,00,13,5.30
2006,04,16,00,14,5.30
2006,04,16,00,15,5.30
2006,04,16,00,16,5.30
2006,04,16,00,17,5.30
2006,04,16,00,18,5.30
2006,04,16,00,19,5.30
2006,04,16,00,20,5.30
2006,04,16,00,21,5.30
2006,04,16,00,22,5.30
2006,04,16,00,23,5.30
2006,04,16,00,24,5.30
2006,04,16,00,25,5.30
2006,04,16,00,26,5.30
2006,04,16,00,27,5.30
2006,04,16,00,28,5.30
2006,04,16,00,29,5.30
2006,04,16,00,30,5.30
2006,04,16,00,31,5.30
2006,04,16,00,32,5.30
2006,04,16,00,33,5.30
2006,04,16,00,34,5.30
2006,04,16,00,35,5.30
2006,04,16,00,36,5.30
2006,04,16,00,37,5.30
2006,04,16,00,38,5.30
2006,04,16,00,39,5.30
2006,04,16,00,40,5.30
2006,04,16,00,41,5.30
2006,04,16,00,42,5.30
2006,04,16,00,43,5.30
2006,04,16,00,44,5.30
2006,04,16,00,45,5.30
2006,04,16,00,46,5.30
2006,04,16,00,47,5.30
2006,04,16,00,48,5.30
2006,04,16,00,49,5.30
2006,04,16,00,50,5.20
2006,04,16,00,51,5.20
2006,04,16,00,52,5.20
2006,04,16,00,53,5.10
2006,04,16,00,54,5.10
2006,04,16,00,55,5.10
2006,04,16,00,56,5.10
2006,04,16,00,57,5.10
2006,04,16,00,58,5.10
2006,04,16,00,59,5.10
2006,04,16,01,00,5.10
2006,04,16,01,01,5.10
2006,04,16,01,02,5.10
2006,04,16,01,03,5.10
2006,04,16,01,04,5.10
2006,04,16,01,05,5.10
2006,04,16,01,06,5.10
2006,04,16,01,07,5.10
2006,04,16,01,08,5.10
2006,04,16,01,09,5.10
2006,04,16,01,10,5.10
2006,04,16,01,11,5.10
2006,04,16,01,12,5.10
2006,04,16,01,13,5.10
2006,04,16,01,14,5.10
2006,04,16,01,15,5.10
2006,04,16,01,16,5.10
2006,04,16,01,17,5.10
2006,04,16,01,18,5.10
2006,04,16,01,19,5.00
2006,04,16,01,20,4.90
2006,04,16,01,21,4.90
2006,04,16,01,22,4.90
2006,04,16,01,23,4.90
2006,04,16,01,24,4.90
2006,04,16,01,25,4.90
2006,04,16,01,26,4.90
2006,04,16,01,27,4.90
2006,04,16,01,28,4.90
2006,04,16,01,29,4.90
2006,04,16,01,30,4.90
2006,04,16,01,31,4.80
2006,04,16,01,32,4.80
2006,04,16,01,33,4.80
2006,04,16,01,34,4.80
2006,04,16,01,35,4.70
2006,04,16,01,36,4.70
2006,04,16,01,37,4.70
2006,04,16,01,38,4.70
2006,04,16,01,39,4.80
2006,04,16,01,40,4.80
2006,04,16,01,41,4.80
2006,04,16,01,42,4.80
2006,04,16,01,43,4.80
2006,04,16,01,44,4.80
2006,04,16,01,45,4.80
2006,04,16,01,46,4.80
2006,04,16,01,47,4.80
2006,04,16,01,48,4.80
2006,04,16,01,49,4.80
2006,04,16,01,50,4.90
2006,04,16,01,51,4.90
2006,04,16,01,52,4.90
2006,04,16,01,53,4.90
2006,04,16,01,54,4.90
2006,04,16,01,55,4.90
2006,04,16,01,56,4.90
2006,04,16,01,57,4.90
2006,04,16,01,58,4.90
2006,04,16,01,59,4.90
2006,04,16,02,00,4.90
2006,04,16,02,01,4.80
2006,04,16,02,02,4.80
2006,04,16,02,03,4.80
2006,04,16,02,04,4.80
2006,04,16,02,05,4.80
2006,04,16,02,06,4.80
2006,04,16,02,07,4.70
2006,04,16,02,08,4.70
2006,04,16,02,09,4.70
2006,04,16,02,10,4.70
2006,04,16,02,11,4.70
2006,04,16,02,12,4.60
2006,04,16,02,13,4.60
2006,04,16,02,14,4.60
2006,04,16,02,15,4.60
2006,04,16,02,16,4.60
2006,04,16,02,17,4.60
2006,04,16,02,18,4.50
2006,04,16,02,19,4.50
2006,04,16,02,20,4.50
2006,04,16,02,21,4.50
2006,04,16,02,22,4.50
2006,04,16,02,23,4.40
2006,04,16,02,24,4.40
2006,04,16,02,25,4.40
2006,04,16,02,26,4.40
2006,04,16,02,27,4.40
2006,04,16,02,28,4.40
2006,04,16,02,29,4.30
2006,04,16,02,30,4.30
2006,04,16,02,31,4.30
2006,04,16,02,32,4.30
2006,04,16,02,33,4.30
2006,04,16,02,34,4.20
2006,04,16,02,35,4.20
2006,04,16,02,36,4.20
2006,04,16,02,37,4.20
2006,04,16,02,38,4.20
2006,04,16,02,39,4.20
2006,04,16,02,40,4.20
2006,04,16,02,41,4.20
2006,04,16,02,42,4.20
2006,04,16,02,43,4.20
2006,04,16,02,44,4.20
2006,04,16,02,45,4.20
2006,04,16,02,46,4.20
2006,04,16,02,47,4.20
2006,04,16,02,48,4.20
2006,04,16,02,49,4.20
2006,04,16,02,50,4.20
2006,04,16,02,51,4.20
2006,04,16,02,52,4.20
2006,04,16,02,53,4.20
2006,04,16,02,54,4.20
2006,04,16,02,55,4.20
2006,04,16,02,56,4.20
2006,04,16,02,57,4.20
2006,04,16,02,58,4.10
2006,04,16,02,59,4.10
2006,04,16,03,00,4.00
2006,04,16,03,01,4.00
2006,04,16,03,02,4.00
2006,04,16,03,03,3.90
2006,04,16,03,04,3.90
2006,04,16,03,05,3.80
2006,04,16,03,06,3.70
2006,04,16,03,07,3.60
2006,04,16,03,08,3.50
2006,04,16,03,09,3.50
2006,04,16,03,10,3.40
2006,04,16,03,11,3.30
2006,04,16,03,12,3.30
2006,04,16,03,13,3.30
2006,04,16,03,14,3.30
2006,04,16,03,15,3.20
2006,04,16,03,16,3.20
2006,04,16,03,17,3.20
2006,04,16,03,18,3.10
2006,04,16,03,19,3.10
2006,04,16,03,20,3.10
2006,04,16,03,21,3.10
2006,04,16,03,22,3.10
2006,04,16,03,23,3.10
2006,04,16,03,24,3.10
2006,04,16,03,25,3.10
2006,04,16,03,26,3.10
2006,04,16,03,27,3.10
2006,04,16,03,28,3.10
2006,04,16,03,29,3.10
2006,04,16,03,30,3.10
2006,04,16,03,31,3.10
2006,04,16,03,32,3.10
2006,04,16,03,33,3.10
2006,04,16,03,34,3.10
2006,04,16,03,35,3.10
2006,04,16,03,36,3.20
2006,04,16,03,37,3.20
2006,04,16,03,38,3.20
2006,04,16,03,39,3.30
2006,04,16,03,40,3.30
2006,04,16,03,41,3.30
2006,04,16,03,42,3.30
2006,04,16,03,43,3.30
2006,04,16,03,44,3.30
2006,04,16,03,45,3.40
2006,04,16,03,46,3.40
2006,04,16,03,47,3.50
2006,04,16,03,48,3.50
2006,04,16,03,49,3.50
2006,04,16,03,50,3.50
2006,04,16,03,51,3.50
2006,04,16,03,52,3.50
2006,04,16,03,53,3.50
2006,04,16,03,54,3.50
2006,04,16,03,55,3.50
2006,04,16,03,56,3.50
2006,04,16,03,57,3.50
2006,04,16,03,58,3.50
2006,04,16,03,59,3.50
2006,04,16,04,00,3.50
2006,04,16,04,01,3.50
2006,04,16,04,02,3.50
2006,04,16,04,03,3.50
2006,04,16,04,04,3.50
2006,04,16,04,05,3.50
2006,04,16,04,06,3.50
2006,04,16,04,07,3.50
2006,04,16,04,08,3.50
2006,04,16,04,09,3.50
2006,04,16,04,10,3.50
2006,04,16,04,11,3.50
2006,04,16,04,12,3.40
2006,04,16,04,13,3.40
2006,04,16,04,14,3.40
2006,04,16,04,15,3.40
2006,04,16,04,16,3.40
2006,04,16,04,17,3.40
2006,04,16,04,18,3.40
2006,04,16,04,19,3.40
2006,04,16,04,20,3.40
2006,04,16,04,21,3.40
2006,04,16,04,22,3.40
2006,04,16,04,23,3.40
2006,04,16,04,24,3.40
2006,04,16,04,25,3.40
2006,04,16,04,26,3.40
2006,04,16,04,27,3.30
2006,04,16,04,28,3.30
2006,04,16,04,29,3.30
2006,04,16,04,30,3.30
2006,04,16,04,31,3.30
2006,04,16,04,32,3.30
2006,04,16,04,33,3.30
2006,04,16,04,34,3.30
2006,04,16,04,35,3.30
2006,04,16,04,36,3.30
2006,04,16,04,37,3.30
2006,04,16,04,38,3.40
2006,04,16,04,39,3.40
2006,04,16,04,40,3.40
2006,04,16,04,41,3.40
2006,04,16,04,42,3.40
2006,04,16,04,43,3.40
2006,04,16,04,44,3.40
2006,04,16,04,45,3.40
2006,04,16,04,46,3.40
2006,04,16,04,47,3.40
2006,04,16,04,48,3.40
2006,04,16,04,49,3.40
2006,04,16,04,50,3.40
2006,04,16,04,51,3.40
2006,04,16,04,52,3.50
2006,04,16,04,53,3.50
2006,04,16,04,54,3.50
2006,04,16,04,55,3.50
2006,04,16,04,56,3.50
2006,04,16,04,57,3.50
2006,04,16,04,58,3.50
2006,04,16,04,59,3.50
2006,04,16,05,00,3.50
2006,04,16,05,01,3.50
2006,04,16,05,02,3.50
2006,04,16,05,03,3.50
2006,04,16,05,04,3.50
2006,04,16,05,05,3.50
2006,04,16,05,06,3.50
2006,04,16,05,07,3.60
2006,04,16,05,08,3.60
2006,04,16,05,09,3.60
2006,04,16,05,10,3.60
2006,04,16,05,11,3.60
2006,04,16,05,12,3.60
2006,04,16,05,13,3.60
2006,04,16,05,14,3.60
2006,04,16,05,15,3.60
2006,04,16,05,16,3.60
2006,04,16,05,17,3.60
2006,04,16,05,18,3.60
2006,04,16,05,19,3.60
2006,04,16,05,20,3.60
2006,04,16,05,21,3.60
2006,04,16,05,22,3.60
2006,04,16,05,23,3.50
2006,04,16,05,24,3.50
2006,04,16,05,25,3.50
2006,04,16,05,26,3.50
2006,04,16,05,27,3.50
2006,04,16,05,28,3.50
2006,04,16,05,29,3.50
2006,04,16,05,30,3.50
2006,04,16,05,31,3.50
2006,04,16,05,32,3.50
2006,04,16,05,33,3.50
2006,04,16,05,34,3.50
2006,04,16,05,35,3.50
2006,04,16,05,36,3.60
2006,04,16,05,37,3.60
2006,04,16,05,38,3.60
2006,04,16,05,39,3.60
2006,04,16,05,40,3.70
2006,04,16,05,41,3.70
2006,04,16,05,42,3.70
2006,04,16,05,43,3.80
2006,04,16,05,44,3.80
2006,04,16,05,45,3.80
2006,04,16,05,46,3.80
2006,04,16,05,47,3.80
2006,04,16,05,48,3.70
2006,04,16,05,49,3.70
2006,04,16,05,50,3.70
2006,04,16,05,51,3.70
2006,04,16,05,52,3.70
2006,04,16,05,53,3.70
2006,04,16,05,54,3.70
2006,04,16,05,55,3.70
2006,04,16,05,56,3.70
2006,04,16,05,57,3.70
2006,04,16,05,58,3.70
2006,04,16,05,59,3.70
2006,04,16,06,00,3.70
2006,04,16,06,01,3.70
2006,04,16,06,02,3.70
2006,04,16,06,03,3.70
2006,04,16,06,04,3.70
2006,04,16,06,05,3.70
2006,04,16,06,06,3.70
2006,04,16,06,07,3.70
2006,04,16,06,08,3.70
2006,04,16,06,09,3.70
2006,04,16,06,10,3.70
2006,04,16,06,11,3.70
2006,04,16,06,12,3.70
2006,04,16,06,13,3.70
2006,04,16,06,14,3.70
2006,04,16,06,15,3.70
2006,04,16,06,16,3.70
2006,04,16,06,17,3.70
2006,04,16,06,18,3.70
2006,04,16,06,19,3.70
2006,04,16,06,20,3.70
2006,04,16,06,21,3.70
2006,04,16,06,22,3.70
2006,04,16,06,23,3.70
2006,04,16,06,24,3.70
2006,04,16,06,25,3.70
2006,04,16,06,26,3.70
2006,04,16,06,27,3.70
2006,04,16,06,28,3.70
2006,04,16,06,29,3.70
2006,04,16,06,30,3.60
2006,04,16,06,31,3.60
2006,04,16,06,32,3.60
2006,04,16,06,33,3.60
2006,04,16,06,34,3.60
2006,04,16,06,35,3.60
2006,04,16,06,36,3.60
2006,04,16,06,37,3.60
2006,04,16,06,38,3.60
2006,04,16,06,39,3.60
2006,04,16,06,40,3.60
2006,04,16,06,41,3.50
2006,04,16,06,42,3.50
2006,04,16,06,43,3.50
2006,04,16,06,44,3.50
2006,04,16,06,45,3.50
2006,04,16,06,46,3.50
2006,04,16,06,47,3.50
2006,04,16,06,48,3.50
2006,04,16,06,49,3.50
2006,04,16,06,50,3.40
2006,04,16,06,51,3.40
2006,04,16,06,52,3.40
2006,04,16,06,53,3.40
2006,04,16,06,54,3.40
2006,04,16,06,55,3.40
2006,04,16,06,56,3.40
2006,04,16,06,57,3.40
2006,04,16,06,58,3.40
2006,04,16,06,59,3.40
2006,04,16,07,00,3.40
2006,04,16,07,01,3.40
2006,04,16,07,02,3.40
2006,04,16,07,03,3.40
2006,04,16,07,04,3.40
2006,04,16,07,05,3.40
2006,04,16,07,06,3.40
2006,04,16,07,07,3.40
2006,04,16,07,08,3.40
2006,04,16,07,09,3.40
2006,04,16,07,10,3.50
2006,04,16,07,11,3.50
2006,04,16,07,12,3.50
2006,04,16,07,13,3.50
2006,04,16,07,14,3.60
2006,04,16,07,15,3.60
2006,04,16,07,16,3.60
2006,04,16,07,17,3.70
2006,04,16,07,18,3.70
2006,04,16,07,19,3.70
2006,04,16,07,20,3.80
2006,04,16,07,21,3.80
2006,04,16,07,22,3.80
2006,04,16,07,23,3.80
2006,04,16,07,24,3.80
2006,04,16,07,25,3.80
2006,04,16,07,26,3.90
2006,04,16,07,27,3.90
2006,04,16,07,28,3.90
2006,04,16,07,29,4.00
2006,04,16,07,30,4.00
2006,04,16,07,31,4.00
2006,04,16,07,32,4.00
2006,04,16,07,33,4.10
2006,04,16,07,34,4.10
2006,04,16,07,35,4.10
2006,04,16,07,36,4.20
2006,04,16,07,37,4.20
2006,04,16,07,38,4.20
2006,04,16,07,39,4.20
2006,04,16,07,40,4.20
2006,04,16,07,41,4.20
2006,04,16,07,42,4.20
2006,04,16,07,43,4.20
2006,04,16,07,44,4.20
2006,04,16,07,45,4.20
2006,04,16,07,46,4.20
2006,04,16,07,47,4.30
2006,04,16,07,48,4.30
2006,04,16,07,49,4.30
2006,04,16,07,50,4.20
2006,04,16,07,51,4.20
2006,04,16,07,52,4.20
2006,04,16,07,53,4.20
2006,04,16,07,54,4.30
2006,04,16,07,55,4.30
2006,04,16,07,56,4.30
2006,04,16,07,57,4.40
2006,04,16,07,58,4.40
2006,04,16,07,59,4.40
2006,04,16,08,00,4.50
2006,04,16,08,01,4.50
2006,04,16,08,02,4.60
2006,04,16,08,03,4.60
2006,04,16,08,04,4.60
2006,04,16,08,05,4.70
2006,04,16,08,06,4.70
2006,04,16,08,07,4.80
2006,04,16,08,08,4.90
2006,04,16,08,09,4.90
2006,04,16,08,10,5.10
2006,04,16,08,11,5.10
2006,04,16,08,12,5.20
2006,04,16,08,13,5.30
2006,04,16,08,14,5.40
2006,04,16,08,15,5.50
2006,04,16,08,16,5.60
2006,04,16,08,17,5.70
2006,04,16,08,18,5.80
2006,04,16,08,19,5.90
2006,04,16,08,20,6.00
2006,04,16,08,21,6.00
2006,04,16,08,22,6.10
2006,04,16,08,23,6.20
2006,04,16,08,24,6.20
2006,04,16,08,25,6.40
2006,04,16,08,26,6.40
2006,04,16,08,27,6.40
2006,04,16,08,28,6.50
2006,04,16,08,29,6.60
2006,04,16,08,30,6.60
2006,04,16,08,31,6.70
2006,04,16,08,32,6.70
2006,04,16,08,33,6.80
2006,04,16,08,34,6.80
2006,04,16,08,35,6.80
2006,04,16,08,36,6.90
2006,04,16,08,37,7.00
2006,04,16,08,38,6.90
2006,04,16,08,39,7.00
2006,04,16,08,40,7.00
2006,04,16,08,41,7.00
2006,04,16,08,42,7.00
2006,04,16,08,43,7.00
2006,04,16,08,44,6.90
2006,04,16,08,45,6.80
2006,04,16,08,46,6.80
2006,04,16,08,47,6.80
2006,04,16,08,48,6.80
2006,04,16,08,49,6.80
2006,04,16,08,50,6.80
2006,04,16,08,51,6.80
2006,04,16,08,52,6.80
2006,04,16,08,53,6.80
2006,04,16,08,54,6.80
2006,04,16,08,55,6.80
2006,04,16,08,56,6.70
2006,04,16,08,57,6.70
2006,04,16,08,58,6.60
2006,04,16,08,59,6.60
2006,04,16,09,00,6.60
2006,04,16,09,01,6.60
2006,04,16,09,02,6.60
2006,04,16,09,03,6.60
2006,04,16,09,04,6.60
2006,04,16,09,05,6.60
2006,04,16,09,06,6.60
2006,04,16,09,07,6.70
2006,04,16,09,08,6.70
2006,04,16,09,09,6.70
2006,04,16,09,10,6.70
2006,04,16,09,11,6.70
2006,04,16,09,12,6.70
2006,04,16,09,13,6.70
2006,04,16,09,14,6.70
2006,04,16,09,15,6.60
2006,04,16,09,16,6.60
2006,04,16,09,17,6.60
2006,04,16,09,18,6.60
2006,04,16,09,19,6.60
2006,04,16,09,20,6.60
2006,04,16,09,21,6.60
2006,04,16,09,22,6.60
2006,04,16,09,23,6.60
2006,04,16,09,24,6.70
2006,04,16,09,25,6.70
2006,04,16,09,26,6.70
2006,04,16,09,27,6.70
2006,04,16,09,28,6.70
2006,04,16,09,29,6.80
2006,04,16,09,30,6.80
2006,04,16,09,31,6.80
2006,04,16,09,32,6.90
2006,04,16,09,33,7.00
2006,04,16,09,34,7.10
2006,04,16,09,35,7.20
2006,04,16,09,36,7.30
2006,04,16,09,37,7.40
2006,04,16,09,38,7.60
2006,04,16,09,39,7.60
2006,04,16,09,40,7.70
2006,04,16,09,41,7.80
2006,04,16,09,42,7.80
2006,04,16,09,43,7.80
2006,04,16,09,44,7.80
2006,04,16,09,45,7.90
2006,04,16,09,46,8.00
2006,04,16,09,47,8.00
2006,04,16,09,48,8.00
2006,04,16,09,49,8.10
2006,04,16,09,50,8.10
2006,04,16,09,51,8.20
2006,04,16,09,52,8.20
2006,04,16,09,53,8.20
2006,04,16,09,54,8.20
2006,04,16,09,55,8.20
2006,04,16,09,56,8.20
2006,04,16,09,57,8.20
2006,04,16,09,58,8.30
2006,04,16,09,59,8.30
2006,04,16,10,00,8.30
2006,04,16,10,01,8.30
2006,04,16,10,02,8.30
2006,04,16,10,03,8.40
2006,04,16,10,04,8.40
2006,04,16,10,05,8.30
2006,04,16,10,06,8.40
2006,04,16,10,07,8.40
2006,04,16,10,08,8.50
2006,04,16,10,09,8.50
2006,04,16,10,10,8.50
2006,04,16,10,11,8.60
2006,04,16,10,12,8.60
2006,04,16,10,13,8.70
2006,04,16,10,14,8.80
2006,04,16,10,15,8.80
2006,04,16,10,16,8.70
2006,04,16,10,17,8.70
2006,04,16,10,18,8.70
2006,04,16,10,19,8.60
2006,04,16,10,20,8.50
2006,04,16,10,21,8.50
2006,04,16,10,22,8.50
2006,04,16,10,23,8.50
2006,04,16,10,24,8.50
2006,04,16,10,25,8.40
2006,04,16,10,26,8.40
2006,04,16,10,27,8.40
2006,04,16,10,28,8.40
2006,04,16,10,29,8.60
2006,04,16,10,30,8.70
2006,04,16,10,31,8.70
2006,04,16,10,32,8.70
2006,04,16,10,33,8.60
2006,04,16,10,34,8.50
2006,04,16,10,35,8.40
2006,04,16,10,36,8.30
2006,04,16,10,37,8.20
2006,04,16,10,38,8.20
2006,04,16,10,39,8.20
2006,04,16,10,40,8.20
2006,04,16,10,41,8.20
2006,04,16,10,42,8.20
2006,04,16,10,43,8.30
2006,04,16,10,44,8.30
2006,04,16,10,45,8.40
2006,04,16,10,46,8.40
2006,04,16,10,47,8.40
2006,04,16,10,48,8.40
2006,04,16,10,49,8.40
2006,04,16,10,50,8.40
2006,04,16,10,51,8.40
2006,04,16,10,52,8.30
2006,04,16,10,53,8.20
2006,04,16,10,54,8.00
2006,04,16,10,55,8.00
2006,04,16,10,56,7.90
2006,04,16,10,57,7.90
2006,04,16,10,58,7.90
2006,04,16,10,59,7.90
2006,04,16,11,00,8.00
2006,04,16,11,01,8.10
2006,04,16,11,02,8.20
2006,04,16,11,03,8.20
2006,04,16,11,04,8.20
2006,04,16,11,05,8.30
2006,04,16,11,06,8.30
2006,04,16,11,07,8.30
2006,04,16,11,08,8.40
2006,04,16,11,09,8.50
2006,04,16,11,10,8.50
2006,04,16,11,11,8.60
2006,04,16,11,12,8.60
2006,04,16,11,13,8.70
2006,04,16,11,14,8.70
2006,04,16,11,15,8.70
2006,04,16,11,16,8.80
2006,04,16,11,17,8.90
2006,04,16,11,18,9.00
2006,04,16,11,19,9.10
2006,04,16,11,20,9.20
2006,04,16,11,21,9.20
2006,04,16,11,22,9.30
2006,04,16,11,23,9.40
2006,04,16,11,24,9.50
2006,04,16,11,25,9.60
2006,04,16,11,26,9.70
2006,04,16,11,27,9.70
2006,04,16,11,28,9.70
2006,04,16,11,29,9.50
2006,04,16,11,30,9.30
2006,04,16,11,31,9.20
2006,04,16,11,32,9.20
2006,04,16,11,33,9.20
2006,04,16,11,34,9.20
2006,04,16,11,35,9.20
2006,04,16,11,36,9.20
2006,04,16,11,37,9.20
2006,04,16,11,38,9.40
2006,04,16,11,39,9.50
2006,04,16,11,40,9.50
2006,04,16,11,41,9.60
2006,04,16,11,42,9.60
2006,04,16,11,43,9.70
2006,04,16,11,44,9.70
2006,04,16,11,45,9.90
2006,04,16,11,46,9.80
2006,04,16,11,47,9.80
2006,04,16,11,48,9.60
2006,04,16,11,49,9.50
2006,04,16,11,50,9.30
2006,04,16,11,51,9.30
2006,04,16,11,52,9.30
2006,04,16,11,53,9.40
2006,04,16,11,54,9.50
2006,04,16,11,55,9.50
2006,04,16,11,56,9.80
2006,04,16,11,57,9.90
2006,04,16,11,58,10.10
2006,04,16,11,59,10.20
2006,04,16,12,00,10.30
2006,04,16,12,01,10.40
2006,04,16,12,02,10.40
2006,04,16,12,03,10.60
2006,04,16,12,04,10.60
2006,04,16,12,05,10.70
2006,04,16,12,06,10.80
2006,04,16,12,07,10.80
2006,04,16,12,08,10.70
2006,04,16,12,09,10.60
2006,04,16,12,10,10.30
2006,04,16,12,11,10.20
2006,04,16,12,12,10.10
2006,04,16,12,13,10.10
2006,04,16,12,14,10.10
2006,04,16,12,15,10.10
2006,04,16,12,16,10.20
2006,04,16,12,17,10.20
2006,04,16,12,18,10.30
2006,04,16,12,19,10.40
2006,04,16,12,20,10.50
2006,04,16,12,21,10.40
2006,04,16,12,22,10.20
2006,04,16,12,23,10.10
2006,04,16,12,24,10.10
2006,04,16,12,25,10.00
2006,04,16,12,26,9.90
2006,04,16,12,27,9.80
2006,04,16,12,28,9.70
2006,04,16,12,29,9.60
2006,04,16,12,30,9.60
2006,04,16,12,31,9.60
2006,04,16,12,32,9.60
2006,04,16,12,33,9.70
2006,04,16,12,34,9.70
2006,04,16,12,35,9.70
2006,04,16,12,36,9.60
2006,04,16,12,37,9.60
2006,04,16,12,38,9.70
2006,04,16,12,39,9.70
2006,04,16,12,40,9.90
2006,04,16,12,41,10.10
2006,04,16,12,42,10.40
2006,04,16,12,43,10.70
2006,04,16,12,44,10.90
2006,04,16,12,45,10.90
2006,04,16,12,46,10.90
2006,04,16,12,47,10.90
2006,04,16,12,48,10.90
2006,04,16,12,49,10.90
2006,04,16,12,50,11.10
2006,04,16,12,51,11.20
2006,04,16,12,52,11.40
2006,04,16,12,53,11.40
2006,04,16,12,54,11.40
2006,04,16,12,55,11.40
2006,04,16,12,56,11.40
2006,04,16,12,57,11.20
2006,04,16,12,58,11.10
2006,04,16,12,59,11.10
2006,04,16,13,00,11.10
2006,04,16,13,01,11.00
2006,04,16,13,02,10.90
2006,04,16,13,03,10.90
2006,04,16,13,04,10.80
2006,04,16,13,05,10.60
2006,04,16,13,06,10.40
2006,04,16,13,07,10.20
2006,04,16,13,08,10.20
2006,04,16,13,09,10.20
2006,04,16,13,10,10.20
2006,04,16,13,11,10.30
2006,04,16,13,12,10.50
2006,04,16,13,13,10.60
2006,04,16,13,14,10.80
2006,04,16,13,15,11.00
2006,04,16,13,16,11.20
2006,04,16,13,17,11.30
2006,04,16,13,18,11.30
2006,04,16,13,19,11.30
2006,04,16,13,20,11.30
2006,04,16,13,21,11.30
2006,04,16,13,22,11.20
2006,04,16,13,23,11.20
2006,04,16,13,24,11.30
2006,04,16,13,25,11.40
2006,04,16,13,26,11.40
2006,04,16,13,27,11.40
2006,04,16,13,28,11.50
2006,04,16,13,29,11.50
2006,04,16,13,30,11.30
2006,04,16,13,31,11.20
2006,04,16,13,32,11.20
2006,04,16,13,33,11.20
2006,04,16,13,34,11.20
2006,04,16,13,35,11.10
2006,04,16,13,36,11.10
2006,04,16,13,37,11.10
2006,04,16,13,38,11.10
2006,04,16,13,39,11.00
2006,04,16,13,40,10.90
2006,04,16,13,41,11.00
2006,04,16,13,42,11.10
2006,04,16,13,43,11.30
2006,04,16,13,44,11.30
2006,04,16,13,45,11.50
2006,04,16,13,46,11.60
2006,04,16,13,47,11.40
2006,04,16,13,48,11.20
2006,04,16,13,49,10.90
2006,04,16,13,50,10.80
2006,04,16,13,51,10.80
2006,04,16,13,52,10.90
2006,04,16,13,53,11.10
2006,04,16,13,54,11.20
2006,04,16,13,55,11.20
2006,04,16,13,56,11.30
2006,04,16,13,57,11.20
2006,04,16,13,58,11.10
2006,04,16,13,59,11.10
2006,04,16,14,00,11.10
2006,04,16,14,01,11.10
2006,04,16,14,02,11.20
2006,04,16,14,03,11.30
2006,04,16,14,04,11.30
2006,04,16,14,05,11.20
2006,04,16,14,06,11.20
2006,04,16,14,07,11.10
2006,04,16,14,08,11.10
2006,04,16,14,09,11.20
2006,04,16,14,10,11.30
2006,04,16,14,11,11.40
2006,04,16,14,12,11.40
2006,04,16,14,13,11.40
2006,04,16,14,14,11.50
2006,04,16,14,15,11.60
2006,04,16,14,16,11.60
2006,04,16,14,17,11.70
2006,04,16,14,18,11.70
2006,04,16,14,19,11.70
2006,04,16,14,20,11.70
2006,04,16,14,21,11.60
2006,04,16,14,22,11.50
2006,04,16,14,23,11.40
2006,04,16,14,24,11.40
2006,04,16,14,25,11.40
2006,04,16,14,26,11.40
2006,04,16,14,27,11.50
2006,04,16,14,28,11.60
2006,04,16,14,29,11.60
2006,04,16,14,30,11.70
2006,04,16,14,31,11.80
2006,04,16,14,32,11.80
2006,04,16,14,33,11.80
2006,04,16,14,34,11.80
2006,04,16,14,35,11.80
2006,04,16,14,36,11.80
2006,04,16,14,37,11.80
2006,04,16,14,38,12.00
2006,04,16,14,39,12.00
2006,04,16,14,40,12.00
2006,04,16,14,41,12.10
2006,04,16,14,42,12.10
2006,04,16,14,43,12.20
2006,04,16,14,44,12.30
2006,04,16,14,45,12.30
2006,04,16,14,46,12.30
2006,04,16,14,47,12.30
2006,04,16,14,48,12.30
2006,04,16,14,49,12.40
2006,04,16,14,50,12.30
2006,04,16,14,51,12.10
2006,04,16,14,52,12.10
2006,04,16,14,53,12.00
2006,04,16,14,54,12.00
2006,04,16,14,55,12.00
2006,04,16,14,56,12.00
2006,04,16,14,57,12.00
2006,04,16,14,58,12.00
2006,04,16,14,59,12.10
2006,04,16,15,00,12.10
2006,04,16,15,01,12.10
2006,04,16,15,02,12.10
2006,04,16,15,03,12.10
2006,04,16,15,04,12.20
2006,04,16,15,05,12.20
2006,04,16,15,06,12.20
2006,04,16,15,07,12.20
2006,04,16,15,08,12.20
2006,04,16,15,09,12.30
2006,04,16,15,10,12.30
2006,04,16,15,11,12.30
2006,04,16,15,12,12.40
2006,04,16,15,13,12.40
2006,04,16,15,14,12.40
2006,04,16,15,15,12.30
2006,04,16,15,16,12.10
2006,04,16,15,17,11.80
2006,04,16,15,18,11.60
2006,04,16,15,19,11.60
2006,04,16,15,20,11.50
2006,04,16,15,21,11.40
2006,04,16,15,22,11.40
2006,04,16,15,23,11.40
2006,04,16,15,24,11.30
2006,04,16,15,25,11.30
2006,04,16,15,26,11.20
2006,04,16,15,27,11.20
2006,04,16,15,28,11.10
2006,04,16,15,29,11.20
2006,04,16,15,30,11.20
2006,04,16,15,31,11.00
2006,04,16,15,32,10.70
2006,04,16,15,33,10.40
2006,04,16,15,34,10.30
2006,04,16,15,35,10.10
2006,04,16,15,36,10.10
2006,04,16,15,37,10.10
2006,04,16,15,38,10.00
2006,04,16,15,39,9.90
2006,04,16,15,40,9.80
2006,04,16,15,41,9.80
2006,04,16,15,42,9.80
2006,04,16,15,43,9.70
2006,04,16,15,44,9.70
2006,04,16,15,45,9.70
2006,04,16,15,46,9.60
2006,04,16,15,47,9.60
2006,04,16,15,48,9.50
2006,04,16,15,49,9.50
2006,04,16,15,50,9.50
2006,04,16,15,51,9.50
2006,04,16,15,52,9.50
2006,04,16,15,53,9.60
2006,04,16,15,54,9.60
2006,04,16,15,55,9.70
2006,04,16,15,56,9.70
2006,04,16,15,57,9.70
2006,04,16,15,58,9.80
2006,04,16,15,59,9.90
2006,04,16,16,00,10.00
2006,04,16,16,01,10.10
2006,04,16,16,02,10.10
2006,04,16,16,03,10.20
2006,04,16,16,04,10.30
2006,04,16,16,05,10.30
2006,04,16,16,06,10.40
2006,04,16,16,07,10.40
2006,04,16,16,08,10.40
2006,04,16,16,09,10.40
2006,04,16,16,10,10.60
2006,04,16,16,11,10.60
2006,04,16,16,12,10.60
2006,04,16,16,13,10.50
2006,04,16,16,14,10.40
2006,04,16,16,15,10.40
2006,04,16,16,16,10.40
2006,04,16,16,17,10.30
2006,04,16,16,18,10.40
2006,04,16,16,19,10.40
2006,04,16,16,20,10.30
2006,04,16,16,21,10.30
2006,04,16,16,22,10.30
2006,04,16,16,23,10.30
2006,04,16,16,24,10.20
2006,04,16,16,25,10.20
2006,04,16,16,26,10.20
2006,04,16,16,27,10.20
2006,04,16,16,28,10.20
2006,04,16,16,29,10.10
2006,04,16,16,30,10.10
2006,04,16,16,31,9.90
2006,04,16,16,32,9.90
2006,04,16,16,33,9.90
2006,04,16,16,34,9.90
2006,04,16,16,35,9.90
2006,04,16,16,36,9.90
2006,04,16,16,37,9.90
2006,04,16,16,38,9.90
2006,04,16,16,39,9.90
2006,04,16,16,40,9.80
2006,04,16,16,41,9.80
2006,04,16,16,42,9.80
2006,04,16,16,43,9.90
2006,04,16,16,44,9.90
2006,04,16,16,45,10.00
2006,04,16,16,46,10.10
2006,04,16,16,47,10.10
2006,04,16,16,48,10.10
2006,04,16,16,49,10.20
2006,04,16,16,50,10.20
2006,04,16,16,51,10.30
2006,04,16,16,52,10.40
2006,04,16,16,53,10.40
2006,04,16,16,54,10.40
2006,04,16,16,55,10.40
2006,04,16,16,56,10.50
2006,04,16,16,57,10.60
2006,04,16,16,58,10.60
2006,04,16,16,59,10.70
2006,04,16,17,00,10.80
2006,04,16,17,01,10.70
2006,04,16,17,02,10.60
2006,04,16,17,03,10.60
2006,04,16,17,04,10.50
2006,04,16,17,05,10.50
2006,04,16,17,06,10.60
2006,04,16,17,07,10.60
2006,04,16,17,08,10.70
2006,04,16,17,09,10.80
2006,04,16,17,10,10.90
2006,04,16,17,11,11.00
2006,04,16,17,12,11.10
2006,04,16,17,13,11.10
2006,04,16,17,14,11.10
2006,04,16,17,15,11.00
2006,04,16,17,16,10.90
2006,04,16,17,17,10.90
2006,04,16,17,18,10.90
2006,04,16,17,19,10.90
2006,04,16,17,20,10.90
2006,04,16,17,21,11.00
2006,04,16,17,22,11.10
2006,04,16,17,23,11.10
2006,04,16,17,24,11.20
2006,04,16,17,25,11.20
2006,04,16,17,26,11.30
2006,04,16,17,27,11.40
2006,04,16,17,28,11.40
2006,04,16,17,29,11.50
2006,04,16,17,30,11.60
2006,04,16,17,31,11.60
2006,04,16,17,32,11.70
2006,04,16,17,33,11.70
2006,04,16,17,34,11.70
2006,04,16,17,35,11.60
2006,04,16,17,36,11.60
2006,04,16,17,37,11.60
2006,04,16,17,38,11.50
2006,04,16,17,39,11.40
2006,04,16,17,40,11.40
2006,04,16,17,41,11.50
2006,04,16,17,42,11.60
2006,04,16,17,43,11.60
2006,04,16,17,44,11.60
2006,04,16,17,45,11.70
2006,04,16,17,46,11.80
2006,04,16,17,47,11.80
2006,04,16,17,48,11.80
2006,04,16,17,49,11.90
2006,04,16,17,50,11.90
2006,04,16,17,51,11.90
2006,04,16,17,52,11.80